This is the latest recevied weather packets stored in our database for station/object JS2WAD-13. If no packets are shown the sender has not sent any weather packets the latest 10 day(s).
| Time | Temp. | Humidity | Pressure | Rain* | Wind** | Luminosity | Snow |
|---|---|---|---|---|---|---|---|
| 1778037381 | 17.78° C | 85% | 911.5 hPa | 0 mm | - | 63 W/m² | - |
| 1778037081 | 17.78° C | 87% | 911.5 hPa | 0 mm | - | 58 W/m² | - |
| 1778036781 | 17.78° C | 85% | 911.6 hPa | 0 mm | - | 56 W/m² | - |
| 1778036481 | 17.78° C | 85% | 911.5 hPa | 0 mm | - | 84 W/m² | - |
| 1778036181 | 17.78° C | 86% | 911.6 hPa | 0 mm | - | 79 W/m² | - |
| 1778035881 | 17.78° C | 85% | 911.6 hPa | 0 mm | - | 86 W/m² | - |
| 1778035581 | 17.22° C | 84% | 911.8 hPa | 0 mm | - | 65 W/m² | - |
| 1778035281 | 17.78° C | 86% | 911.7 hPa | 0 mm | - | 102 W/m² | - |
| 1778034981 | 17.78° C | 87% | 911.7 hPa | 0 mm | - | 84 W/m² | - |
| 1778034681 | 17.78° C | 87% | 911.8 hPa | 0 mm | - | 86 W/m² | - |
| 1778034381 | 17.78° C | 86% | 911.8 hPa | 0 mm | - | 74 W/m² | - |
| 1778034081 | 17.78° C | 88% | 911.8 hPa | 0 mm | - | 70 W/m² | - |
| 1778033781 | 17.78° C | 88% | 912.1 hPa | 0 mm | - | 58 W/m² | - |
| 1778033481 | 17.78° C | 88% | 912.2 hPa | 0 mm | - | 74 W/m² | - |
| 1778033181 | 17.78° C | 88% | 912.2 hPa | 0 mm | - | 47 W/m² | - |
| 1778032881 | 17.78° C | 87% | 912.1 hPa | 0 mm | - | 40 W/m² | - |
| 1778032581 | 17.22° C | 86% | 912.1 hPa | 0 mm | - | 37 W/m² | - |
| 1778032281 | 17.22° C | 85% | 912 hPa | 0 mm | - | 56 W/m² | - |
| 1778031981 | 17.22° C | 86% | 912 hPa | 0 mm | - | 91 W/m² | - |
| 1778031681 | 17.22° C | 85% | 912 hPa | 0 mm | - | 142 W/m² | - |
| 1778031381 | 17.22° C | 86% | 912.2 hPa | 0 mm | - | 83 W/m² | - |
| 1778031081 | 17.22° C | 87% | 912.1 hPa | 0 mm | - | 98 W/m² | - |
| 1778030781 | 17.22° C | 85% | 912.2 hPa | 0 mm | - | 120 W/m² | - |
| 1778030481 | 17.22° C | 86% | 912.1 hPa | 0 mm | - | 125 W/m² | - |
| 1778030181 | 17.78° C | 85% | 912.2 hPa | 0 mm | - | 105 W/m² | - |
* Rain latest hour (hover to see other rain measurements)
** Current wind speed in m/s (hover to see current wind gust speed)